Bowling Green, KY

8:04 AM CDT on June 25, 2017 (GMT -0500)
Bowling Green-Warren County Regional

Weather History for KBWG - March, 2011

Change the Weather History Date:

Friday, March 18, 2011

  Actual Average Record
Temperature  
Mean Temperature 68 °F 49 °F  
Max Temperature 80 °F 61 °F 87 °F (1908)
Min Temperature 56 °F 38 °F 14 °F (1902)
Degree Days  
Heating Degree Days 0 16  
Month to date heating degree days 264 337  
Since 1 July heating degree days 3590 3535  
Cooling Degree Days 3 0  
Month to date cooling degree days 3 0  
Year to date cooling degree days 3 0  
Growing Degree Days 19 (Base 50)    
Moisture  
Dew Point 52 °F    
Average Humidity 57    
Maximum Humidity 65    
Minimum Humidity 48    
Precipitation  
Precipitation 0.00 in 0.14 in 3.00 in (1919)
Month to date precipitation 3.69 2.48  
Year to date precipitation 11.82 10.05  
Snow  
Snow 0.00 in 0.00 in 0.70 in (1949)
Month to date snowfall 0.0 0.6  
Since 1 July snowfall 21.2 8.4  
Snow Depth 0.00 in    
Sea Level Pressure  
Sea Level Pressure 30.14 in    
Wind  
Wind Speed 9 mph (SW)    
Max Wind Speed 17 mph    
Max Gust Speed 24 mph    
Visibility 10 miles    
Events      
T = Trace of Precipitation, MM = Missing Value Source: NWS Daily Summary

Daily Weather History Graph

Daily Weather History Graph

Search for Another Location

Airport or City:

Trip Planner

Search our weather history database for the weather conditions in past years. The results will help you decide how hot, cold, wet, or windy it might be!

Date:

Astronomy

Mar. 18, 2011 Rise Set
Actual Time 6:52 AM CDT 6:55 PM CDT
Civil Twilight 6:26 AM CDT 7:21 PM CDT
Nautical Twilight 5:56 AM CDT 7:51 PM CDT
Astronomical Twilight 5:26 AM CDT 8:22 PM CDT
Moon 6:03 PM CDT (3/18) 5:48 AM CDT (3/18)
Length of Visible Light 12h 54m
Length of Day
12h 02m
Waxing Gibbous, 98% of the Moon is Illuminated
Mar 18
Waxing Gibbous
Mar 19
Full
Mar 26
Last Quarter
Apr 3
New
Apr 11
First Quarter

Hourly Weather History & Observations

Time (CDT) Temp. Dew Point Humidity Pressure Visibility Wind Dir Wind Speed Gust Speed Precip Events Conditions
12:53 AM 61.0 °F 46.9 °F 60% 30.12 in 10.0 mi SSW 3.5 mph - N/A   Clear
1:53 AM 60.1 °F 46.0 °F 60% 30.12 in 10.0 mi SSW 3.5 mph - N/A   Clear
2:53 AM 61.0 °F 46.0 °F 58% 30.10 in 10.0 mi SSW 6.9 mph - N/A   Mostly Cloudy
3:53 AM 63.0 °F 46.0 °F 54% 30.09 in 10.0 mi SSW 11.5 mph - N/A   Overcast
4:53 AM 62.1 °F 46.9 °F 58% 30.11 in 10.0 mi SW 4.6 mph - N/A   Overcast
5:53 AM 62.1 °F 48.0 °F 60% 30.12 in 10.0 mi SSW 3.5 mph - N/A   Overcast
6:53 AM 63.0 °F 50.0 °F 63% 30.13 in 10.0 mi SSW 6.9 mph - N/A   Overcast
7:53 AM 63.0 °F 50.0 °F 63% 30.14 in 10.0 mi SSW 8.1 mph - N/A   Overcast
8:53 AM 64.9 °F 52.0 °F 63% 30.16 in 10.0 mi SW 6.9 mph - N/A   Overcast
9:53 AM 69.1 °F 55.0 °F 61% 30.16 in 10.0 mi SW 11.5 mph - N/A   Clear
10:53 AM 72.0 °F 55.9 °F 57% 30.15 in 10.0 mi WSW 8.1 mph - N/A   Partly Cloudy
11:53 AM 73.0 °F 57.0 °F 57% 30.14 in 10.0 mi SW 10.4 mph - N/A   Clear
12:53 PM 75.9 °F 59.0 °F 56% 30.12 in 10.0 mi SW 9.2 mph - N/A   Clear
1:53 PM 77.0 °F 59.0 °F 54% 30.09 in 10.0 mi SW 12.7 mph - N/A   Clear
2:53 PM 79.0 °F 59.0 °F 50% 30.07 in 10.0 mi SSW 13.8 mph 20.7 mph N/A   Clear
3:53 PM 78.1 °F 57.9 °F 50% 30.07 in 10.0 mi SW 11.5 mph 20.7 mph N/A   Scattered Clouds
5:53 PM 77.0 °F 57.9 °F 52% 30.06 in 10.0 mi SW 12.7 mph - N/A   Clear
6:53 PM 71.1 °F 57.9 °F 63% 30.11 in 10.0 mi NW 11.5 mph 19.6 mph N/A   Scattered Clouds
7:53 PM 64.0 °F 52.0 °F 65% 30.16 in 10.0 mi NNW 11.5 mph - N/A   Mostly Cloudy
8:53 PM 62.1 °F 48.9 °F 62% 30.20 in 10.0 mi North 6.9 mph - N/A   Overcast
9:53 PM 60.1 °F 45.0 °F 57% 30.23 in 10.0 mi NNE 10.4 mph - N/A   Overcast
10:53 PM 59.0 °F 45.0 °F 60% 30.25 in 10.0 mi NNE 8.1 mph - N/A   Overcast
11:53 PM 57.0 °F 45.0 °F 64% 30.26 in 10.0 mi NNE 6.9 mph - N/A   Overcast